DW9298 Weather Reports


Display with metric or nautical units.
time (UTC)temp
F
wind
direction
speed
MPH
gust
MPH
rain 1hr
in
rain 24hr
in
rain mn
in
humidity
%
barometer
mb
20260507154545 54 245 13.0 19.0 0.00 0.27 0.00 52 1015.7
20260507153048 54 238 15.0 18.0 0.00 0.27 0.00 50 1015.5
20260507151544 54 244 13.0 20.0 0.00 0.27 0.00 52 1015.7
20260507150043 54 254 15.0 20.0 0.00 0.27 0.00 50 1015.9
20260507144540 53 259 14.0 21.0 0.00 0.27 0.00 53 1015.8
20260507143046 52 258 16.0 22.0 0.00 0.27 0.00 53 1015.7
20260507141552 50 259 15.0 21.0 0.00 0.27 0.00 56 1015.6
20260507140043 48 247 17.0 21.0 0.00 0.27 0.00 59 1015.7
20260507134552 46 251 14.0 19.0 0.00 0.27 0.00 64 1015.8
20260507133044 44 257 16.0 20.0 0.00 0.27 0.00 64 1015.6
20260507131543 43 254 17.0 20.0 0.00 0.27 0.00 64 1015.3
20260507130044 41 246 15.0 20.0 0.00 0.27 0.00 66 1015.2
20260507124541 40 250 15.0 20.0 0.00 0.27 0.00 66 1015.0
20260507123039 39 253 16.0 19.0 0.00 0.27 0.00 67 1015.1
20260507121540 38 252 17.0 20.0 0.00 0.27 0.00 67 1014.8
20260507120046 37 246 17.0 20.0 0.00 0.27 0.00 68 1014.7
20260507114540 37 250 18.0 22.0 0.00 0.27 0.00 69 1014.6
20260507113040 37 244 17.0 20.0 0.00 0.27 0.00 71 1014.6
20260507111548 37 247 16.0 20.0 0.00 0.27 0.00 71 1014.5
20260507110059 36 241 16.0 20.0 0.00 0.27 0.00 71 1014.6
20260507104545 36 232 15.0 19.0 0.00 0.27 0.00 71 1014.6
20260507103041 36 244 15.0 20.0 0.00 0.27 0.00 71 1014.9
20260507101549 36 253 16.0 20.0 0.00 0.27 0.00 71 1015.0
20260507100040 36 238 16.0 19.0 0.00 0.27 0.00 73 1015.0
20260507094545 36 234 16.0 19.0 0.00 0.27 0.00 73 1015.1
20260507093047 37 240 16.0 20.0 0.00 0.27 0.00 72 1015.1
20260507091552 37 232 16.0 20.0 0.00 0.27 0.00 72 1015.1
20260507090055 37 238 16.0 20.0 0.00 0.27 0.00 73 1015.0
20260507084542 37 248 16.0 20.0 0.00 0.27 0.00 74 1015.1
20260507083043 37 238 17.0 22.0 0.00 0.27 0.00 75 1015.2
20260507081544 37 242 16.0 21.0 0.00 0.27 0.00 75 1015.3
20260507080040 37 240 18.0 22.0 0.00 0.27 0.00 76 1015.5
20260507074544 36 241 15.0 19.0 0.00 0.27 0.00 80 1015.6
20260507073041 35 238 16.0 21.0 0.00 0.27 0.00 82 1015.8
20260507071538 34 236 14.0 18.0 0.00 0.27 0.00 84 1015.9
20260507070057 34 240 13.0 16.0 0.00 0.27 0.00 85 1016.0
20260507064541 34 240 15.0 19.0 0.00 0.27 0.00 86 1016.2
20260507063039 33 229 14.0 17.0 0.00 0.27 0.00 86 1016.2
20260507061540 33 227 12.0 15.0 0.00 0.27 0.00 86 1016.5
20260507054547 33 239 12.0 14.0 0.00 0.27 0.27 84 1016.7
20260507053050 33 248 11.0 15.0 0.00 0.27 0.27 84 1016.8
20260507051541 34 242 11.0 14.0 0.00 0.27 0.27 83 1017.0
20260507050046 34 233 11.0 14.0 0.00 0.27 0.27 83 1017.4
20260507044547 34 235 7.0 10.0 0.00 0.27 0.27 84 1017.6
20260507043043 34 225 7.0 9.0 0.00 0.27 0.27 83 1017.8
20260507041543 34 214 6.0 8.0 0.00 0.27 0.27 83 1017.9
20260507040049 34 217 6.0 8.0 0.00 0.27 0.27 83 1018.0
20260507034554 34 220 4.0 6.0 0.00 0.27 0.27 81 1018.2
20260507033046 35 225 4.0 5.0 0.00 0.27 0.27 80 1018.2
20260507031544 35 217 4.0 5.0 0.00 0.27 0.27 79 1018.2
20260507030044 36 207 3.0 4.0 0.00 0.27 0.27 78 1018.2
20260507024552 37 205 3.0 5.0 0.00 0.28 0.27 77 1018.1
20260507023037 37 192 3.0 5.0 0.00 0.28 0.27 76 1018.0
20260507021548 38 210 3.0 5.0 0.00 0.28 0.27 75 1018.0
20260507020039 39 217 4.0 7.0 0.00 0.28 0.27 74 1017.8
20260507014551 40 213 6.0 9.0 0.00 0.28 0.27 72 1017.7
20260507013038 40 224 7.0 12.0 0.00 0.28 0.27 69 1017.7
20260507011546 41 227 8.0 15.0 0.00 0.28 0.27 68 1017.8
20260507010055 42 231 8.0 15.0 0.00 0.28 0.27 67 1017.8
20260507004543 42 205 10.0 14.0 0.00 0.29 0.27 66 1017.9
20260507003044 42 234 7.0 14.0 0.00 0.29 0.27 66 1018.1
20260507001551 43 225 8.0 12.0 0.00 0.29 0.27 65 1018.2
20260507000043 43 217 7.0 12.0 0.00 0.29 0.27 67 1018.4
20260506234548 43 250 7.0 13.0 0.00 0.31 0.27 67 1018.4
20260506233058 43 229 6.0 11.0 0.00 0.31 0.27 67 1018.5
20260506231545 43 229 10.0 15.0 0.00 0.31 0.27 69 1018.3
20260506230047 43 213 9.0 17.0 0.00 0.31 0.27 69 1018.4
20260506224541 43 194 9.0 16.0 0.00 0.33 0.27 71 1018.5
20260506223045 43 259 10.0 16.0 0.00 0.33 0.27 70 1018.6
20260506221547 42 249 10.0 15.0 0.00 0.33 0.27 75 1018.8
20260506220049 41 234 10.0 13.0 0.00 0.33 0.27 72 1018.9
20260506214544 41 243 7.0 12.0 0.00 0.34 0.27 73 1019.2
20260506213043 42 238 9.0 15.0 0.00 0.34 0.27 76 1019.2
20260506211548 40 239 6.0 12.0 0.00 0.34 0.27 75 1019.4
20260506210043 40 281 2.0 8.0 0.00 0.34 0.27 72 1019.5
20260506204548 41 292 5.0 8.0 0.00 0.37 0.27 70 1019.7
20260506203045 42 242 4.0 10.0 0.00 0.37 0.27 70 1019.9
20260506201545 41 209 3.0 8.0 0.00 0.37 0.27 76 1020.0
20260506200049 40 245 2.0 5.0 0.00 0.37 0.27 77 1020.1
20260506194544 39 190 2.0 6.0 0.01 0.38 0.27 80 1020.3
20260506193038 38 119 1.0 6.0 0.03 0.38 0.27 82 1020.5
20260506191545 38 272 1.0 4.0 0.05 0.38 0.27 83 1020.6
20260506190043 38 55 3.0 6.0 0.07 0.37 0.26 83 1020.8
20260506184546 39 355 2.0 7.0 0.08 0.38 0.25 85 1020.8
20260506183045 38 0 1.0 7.0 0.09 0.37 0.24 87 1020.9
20260506181544 38 22 3.0 9.0 0.09 0.34 0.22 89 1020.9
20260506180048 37 16 5.0 9.0 0.08 0.32 0.19 91 1021.0
20260506174554 36 5 7.0 10.0 0.08 0.30 0.17 92 1020.9
20260506173046 35 5 4.0 10.0 0.08 0.28 0.14 92 1020.8
20260506171540 35 24 3.0 10.0 0.08 0.25 0.12 93 1020.7
20260506170048 34 15 5.0 9.0 0.07 0.23 0.10 93 1020.7
20260506164539 34 61 7.0 10.0 0.06 0.21 0.07 94 1020.3
20260506163049 33 33 4.0 10.0 0.04 0.18 0.05 94 1020.3
20260506161546 32 71 6.0 11.0 0.03 0.17 0.03 94 1020.0
20260506160043 32 67 10.0 13.0 0.02 0.15 0.02 94 1020.1